TimeCST,TemperatureF,Dew PointF,Humidity,Sea Level PressureIn,VisibilityMPH,Wind Direction,Wind SpeedMPH,Gust SpeedMPH,PrecipitationIn,Events,Conditions,WindDirDegrees,DateUTC
12:53 AM,23.0,19.9,88,30.33,8.0,ESE,11.5,-,N/A,,Clear,120,2013-03-08 06:53:00
1:53 AM,26.1,21.9,84,30.34,8.0,SE,17.3,-,N/A,,Clear,140,2013-03-08 07:53:00
2:53 AM,25.0,21.0,85,30.32,7.0,SE,15.0,-,N/A,,Clear,130,2013-03-08 08:53:00
3:53 AM,24.1,21.9,91,30.32,7.0,SE,12.7,-,N/A,,Clear,130,2013-03-08 09:53:00
4:53 AM,24.1,21.0,88,30.32,7.0,SE,13.8,-,N/A,,Clear,130,2013-03-08 10:53:00
5:53 AM,24.1,21.9,91,30.32,7.0,SE,12.7,-,N/A,,Clear,130,2013-03-08 11:53:00
6:53 AM,24.1,21.9,91,30.33,5.0,SE,15.0,-,N/A,,Clear,140,2013-03-08 12:53:00
7:53 AM,25.0,21.9,88,30.32,5.0,SE,13.8,-,N/A,,Clear,130,2013-03-08 13:53:00
8:53 AM,26.1,23.0,88,30.33,5.0,SE,15.0,-,N/A,,Clear,140,2013-03-08 14:53:00
9:53 AM,28.9,25.0,85,30.32,5.0,SE,16.1,-,N/A,,Clear,140,2013-03-08 15:53:00
10:53 AM,32.0,27.0,82,30.32,6.0,SSE,13.8,19.6,N/A,,Haze,150,2013-03-08 16:53:00
11:53 AM,34.0,28.0,79,30.31,6.0,SE,16.1,-,N/A,,Haze,140,2013-03-08 17:53:00
12:53 PM,36.0,28.9,76,30.27,7.0,SE,15.0,-,N/A,,Clear,140,2013-03-08 18:53:00
1:53 PM,37.0,28.9,73,30.25,8.0,SE,16.1,-,N/A,,Clear,140,2013-03-08 19:53:00
2:53 PM,39.0,30.0,70,30.25,8.0,SE,15.0,-,N/A,,Clear,130,2013-03-08 20:53:00
3:53 PM,37.9,30.0,73,30.24,8.0,SE,16.1,-,N/A,,Clear,130,2013-03-08 21:53:00
4:53 PM,37.0,30.0,76,30.23,7.0,ESE,12.7,-,N/A,,Clear,120,2013-03-08 22:53:00
5:53 PM,36.0,30.0,79,30.21,7.0,ESE,11.5,-,N/A,,Clear,110,2013-03-08 23:53:00
6:53 PM,36.0,30.0,79,30.19,9.0,ESE,16.1,-,N/A,,Partly Cloudy,110,2013-03-09 00:53:00
7:53 PM,36.0,30.0,79,30.17,10.0,SE,20.7,26.5,N/A,,Scattered Clouds,130,2013-03-09 01:53:00
8:53 PM,36.0,30.0,79,30.17,9.0,SE,16.1,-,N/A,,Overcast,130,2013-03-09 02:53:00
9:53 PM,36.0,30.9,82,30.17,8.0,SE,16.1,-,N/A,,Overcast,130,2013-03-09 03:53:00
10:53 PM,36.0,32.0,86,30.13,8.0,ESE,15.0,-,0.00,Rain,Light Rain,120,2013-03-09 04:53:00
11:53 PM,36.0,33.1,89,30.10,7.0,SE,19.6,-,0.00,Rain,Light Rain,140,2013-03-09 05:53:00